www.pogodaiklimat.ru

Погода и климат >> Архив погоды >> Россия >> Хабаровский край >> Аян


АРХИВ ПОГОДЫ в Аяне

Время (UTC), дата Ветер
(напр.,м/с)
 
Видим.   Явления Облачность Т
(С)
Тd
(С)
f
(%)
Тe
(С)
Тes
(С)
Комфортность P
(гПа)
Po
(гПа)
Тmin
(С)
Tmax
(С)
R
(мм)
R24
(мм)
S
(см)
09 19.04 С 4
{13}
4000 м снег 10/10 200 м
[Frnb Ns]
-1.2 -2.0 94 -7 -7 1012.6 1011.8 -0.2 8
12 19.04 С 4
{10}
4000 м снег 10/10 200 м
[Frnb Ns]
-1.2 -2.0 94 -7 -7 1013.4 1012.6
15 19.04 С 4 4000 м слаб. ливневой снег 10/10 200 м
[Cb cap]
-1.1 -1.9 94 -7 -7 1014.1 1013.3
18 19.04 С 4 4000 м слаб. ливневой снег 10/10 200 м
[Cb cap]
-1.0 -1.9 94 -7 -7 1013.7 1013.0
21 19.04 С 5 1000 м ливневой снег 10/10 100 м
[Cb cap]
-1.1 -1.9 94 -8 -8 1013.7 1012.9 -1.2 2 60
00 20.04 СВ 6
{10}
4000 м слаб. ливневой снег 10/10 100 м
[Cb cap]
-1.0 -1.8 94 -8 -8 1013.6 1012.9
03 20.04 СВ 6-10
{11}
4000 м слаб. ливневой снег 10/10 100 м
[Cb cap]
-1.1 -1.9 94 -8 -8 1013.1 1012.4
06 20.04 С 4
{10}
2000 м ливневой снег 10/10 100 м
[Cb cap]
-1.1 -1.8 95 -7 -7 1012.3 1011.5
09 20.04 С 3 4000 м снег {ливн. осадки} [диам. гололёда 1 мм] 10/10 100 м
[Frnb Ns]
-0.8 -1.4 96 -6 -6 1011.9 1011.2 -0.7 9
12 20.04 СВ 3 2000 м снег {ливн. осадки} 10/10 100 м
[Frnb Ns]
-1.2 -1.8 96 -6 -6 1012.0 1011.3
15 20.04 С 2 1000 м ливневой снег 10/10 100 м
[Frnb Ns]
-1.1 -1.7 96 -5 -5 1010.9 1010.1
18 20.04 С 1 2000 м слаб. ливневой снег 10/10 100 м
[Cb cap]
-0.7 -1.4 95 -3 -3 1009.1 1008.4
21 20.04 штиль 0 1000 м ливневой снег 10/10 100 м
[Cb cap]
-0.7 -1.3 96 -2 -2 1008.6 1007.8 -1.2 9 75
00 21.04 С 2 2000 м слаб. ливневой снег 10/10 200 м
[Cb cap]
-1.1 -2.0 94 -5 -5 1009.0 1008.2 -1.3
03 21.04 С 5 1000 м ливневой снег 10/10 200 м
[Cb cap]
-1.5 -2.2 95 -8 -8 1008.4 1007.7
06 21.04 СВ 7-11
{12}
10 км слаб. снег 10/10 100 м
[Frnb Ns]
-1.2 -1.9 95 -9 -9 1008.1 1007.3
09 21.04 СВ 5
{11}
20 км {снег, туман} [диам. гололёда 1 мм] 10/10 100 м
[St]
-1.2 -1.9 95 -8 -8 1008.6 1007.8 -0.7 8
12 21.04 С 4 10 км слаб. снег {туман} [диам. гололёда 1 мм] 10/10 100 м
[Frnb Ns]
-1.3 -2.0 95 -7 -7 1009.1 1008.4
15 21.04 С 3 4000 м снег [диам. гололёда 1 мм] 10/10 100 м
[Frnb Ns]
-1.3 -1.9 96 -6 -6 1008.8 1008.1
18 21.04 С 3 4000 м снег [диам. гололёда 1 мм] 10/10 100 м
[Frnb Ns]
-1.3 -2.0 95 -6 -6 1008.6 1007.8
21 21.04 штиль 0 20 км слаб. снег [диам. гололёда 1 мм] 10/10 300 м
[Frnb]
-1.5 -2.2 95 -3 -3 1008.3 1007.5 -1.6 5 80
00 22.04 Ю 3 50 км {снег} 1/1 100 м
[St]
-0.1 -1.8 88 -5 +1 1008.5 1007.8 -2.4
03 22.04 Ю 4 50 км 4/4 100 м
[St]
+0.3 -1.3 89 -5 -0 1009.2 1008.4
06 22.04 Ю 3 50 км 6/6 600 м
[Sc]
+0.2 -1.7 87 -4 -2 1009.4 1008.7
09 22.04 ЮЗ 3 50 км 1/0
[Ac lent]
-1.0 -2.2 92 -6 -6 1009.8 1009.0 +0.7 0.0
12 22.04 СВ 1 50 км ясно -3.6 -4.5 93 -6 -6 1010.9 1010.1
15 22.04 С 2 50 км ясно -1.8 -3.4 89 -6 -6 1011.7 1010.9
18 22.04 С 2 50 км ясно -1.5 -3.8 84 -5 -5 1011.8 1011.0
21 22.04 С 1 50 км 8/8 1000 м
[Sc]
-1.0 -3.5 83 -3 -3 1012.0 1011.2 -3.6 68
00 23.04 С 4 50 км 8/8 1000 м
[Sc]
+1.5 -4.5 64 -3 -2 1012.8 1012.1
03 23.04 С 4 50 км ясно +1.7 -2.4 74 -3 +5 1012.6 1011.9
06 23.04 С 4 50 км ясно +1.5 -1.8 79 -3 +1 1012.5 1011.7
09 23.04 С 4 50 км 3/0
[Ci fib]
-0.6 -2.0 90 -6 -6 1013.3 1012.6 +3.7
12 23.04 СВ 3 500 м туман [диам. гололёда 1 мм] ?/? -3.2 -3.9 95 -9 -9 1014.5 1013.7
15 23.04 СВ 3 500 м туман ?/? -4.4 -5.2 94 -10 -10 1014.7 1013.9
18 23.04 С 3 500 м туман ?/? -4.6 -5.4 94 -10 -10 1014.7 1014.0
21 23.04 С 2 500 м переохл. туман [диам. сложн. отлож. 10 мм] ?/? -5.0 -5.9 93 -9 -9 1015.6 1014.9 -5.3 0.4 60
00 24.04 С 3 50 км {туман} 10/0
[Ci fib]
-1.2 -2.0 94 -6 -1 1015.9 1015.2
03 24.04 С 5 50 км 10/0
[Cs]
+0.5 -4.7 68 -5 0 1015.9 1015.1
06 24.04 Ю 3 50 км 10/0
[Cs]
-0.5 -2.9 84 -5 -1 1016.2 1015.4
09 24.04 С 3 50 км 10/0
[Cs]
-0.7 -3.1 84 -5 -5 1016.5 1015.8 +2.3
12 24.04 штиль 0 500 м туман ?/? -3.7 -4.4 95 -5 -5 1017.1 1016.3
15 24.04 Ю 2 500 м туман ?/? -4.3 -5.2 93 -9 -9 1016.7 1016.0
18 24.04 штиль 0 500 м туман ?/? -5.7 -6.6 93 -7 -7 1015.9 1015.1
21 24.04 штиль 0 50 км переохл. туман ясно -7.0 -8.0 93 -8 -6 1016.2 1015.4 -7.2 0.3 59
00 25.04 ЮЗ 2 50 км туман местами ясно -4.4 -5.2 94 -9 -1 1016.7 1015.9
03 25.04 ЮЗ 4 50 км туман местами ясно -2.8 -3.7 94 -9 -1 1016.3 1015.5
06 25.04 ЮЗ 4 50 км 3/0
[Ac lent]
-0.3 -3.3 80 -6 -2 1014.6 1013.8
09 25.04 ЮЗ 2 50 км 3/0
[Ac trans]
+1.5 -4.4 65 -1 -1 1013.2 1012.5 +2.9
12 25.04 штиль 0 50 км 6/0
[Ac trans]
-2.1 -5.5 77 -3 -3 1012.9 1012.1
15 25.04 С 2 50 км 3/0
[Ac lent]
+0.5 -6.6 59 -3 -3 1012.1 1011.3
18 25.04 С 2 50 км 4/0
[Ac lent]
-0.7 -6.7 64 -4 -4 1011.2 1010.4
21 25.04 С 1 50 км 8/3 1000 м
[Sc Ac trans]
+2.1 -4.6 61 +1 +2 1011.2 1010.4 -2.7 56
00 26.04 Ю 1 50 км 10/0
[Ac lent Cs]
+9.9 -7.8 28 +10 +17 1010.3 1009.6
03 26.04 СВ 2 50 км 10/1 600 м
[Sc Cc]
+10.6 -8.2 26 +10 +19 1009.0 1008.3

 

Местоположение метеостанции Аян (Хабаровский край, Россия): широта 56.45 долгота 138.10 высота над уровнем моря 8 м.

В архиве по умолчанию представлена погода в Аяне за последнюю неделю. Архивные данные за месяц целиком и за предыдущие месяцы, начиная с января 2011 года, Вы можете получить, выбрав интересующий диапазон дат из раскрывающегося списка и нажав кнопку "Ввод!".


*Определитесь, кто Вы:
робот инопланетянин человек

Внимание! Время в таблицах - всемирное. Для получения местного времени необходимо прибавить поправку, которая равна 10 ч.

Смотрите также архив погоды в соседних городах и на ближайших метеорологических станциях:

Погода в Нелькане (Хабаровский край, Россия) (180 км)
Погода в Большом Шантаре (Хабаровский край, Россия) (184 км)
Погода в Джане (Хабаровский край, Россия) (257 км)
Погода в Чумикане (Хабаровский край, Россия) (261 км)
Погода в Литке (Хабаровский край, Россия) (311 км)
Погода в Удском (Хабаровский край, Россия) (318 км)
Погода в Улье (Хабаровский край, Россия) (342 км)
Погода в Усть-Юдоме (Якутия, Россия) (352 км)
Погода в Ныврово (Сахалинская область, Россия) (369 км)
Погода в Югоренке (Якутия, Россия) (370 км)

Пояснения к столбцам:

Ветер - указаны скорость ветра в м/с - средняя за 10 мин, порывы в срок и между сроками (в фигурных скобках) и направление, откуда дует ветер: С - северный, СВ - северо-восточный, В - восточный, ЮВ - юго-восточный, Ю - южный, ЮЗ - юго-западный, З - западный, СЗ - северо-западный.
Видимость - горизонтальная дальность видимости в метрах или километрах. При видимости от 1 до 10 км при отсутствии осадков обычно наблюдается дымка, при ухудшении видимости до 1 км и менее - туман. В сухую погоду видимость может ухудшаться дымом, пылью или мглою.
Явления - указаны атмосферные явления, наблюдавшиеся в срок или в последний час перед сроком; фигурными скобками обозначены явления, наблюдавшиеся между сроками (за 1-3 часа до срока); квадратными скобками обозначены град или гололедные отложения с указанием их диаметра в мм.
Облачность - указаны через наклонную черту общая и нижняя облачность в баллах и высота нижней границы облаков в метрах; квадратными скобками обозначены формы облаков: Ci - перистые, Cs - перисто-слоистые, Cc - перисто-кучевые, Ac - высококучевые, As - высокослоистые, Sc - слоисто-кучевые, Ns - слоисто-дождевые, Cu - кучевые, Cb - кучево-дождевые. Подробнее классификацию облаков см. в Атласе облаков (PDF).
T - Температура воздуха - температура, измеренная на высоте 2 м над землей.
Td - Температура точки росы - температура, при понижении до которой содержащийся в воздухе водяной пар достигнет насыщения.
f - Относительная влажность воздуха - влажноcть воздуха, измеренная на высоте 2 м над землей.
Te - Эффективная температура - температура, которую ощущает одетый по сезону человек в тени. Характеристика душности погоды. При расчете учитывается влияние влажности воздуха и скорости ветра на теплоощущения человека.
Tes - Эффективная температура на солнце - температура, которую ощущает человек, с поправкой на солнечный нагрев. Характеристика знойности погоды. Зависит от высоты солнца над горизонтом, облачности и скорости ветра. Ночью, в пасмурную погоду, а также при ветре 12 м/с и более поправка равна нулю.
P - Атмосферное давление - приведенное к уровню моря атмосферное давление.
Po - Атмосферное давление - измеренное на уровне метеостанции атмосферное давление.
Tmin - Минимальная температура - минимум температуры воздуха на высоте 2 м над землей.
Tmax - Максимальная температура - максимум температуры воздуха на высоте 2 м над землей.
R - Количество осадков - Количество выпавших осадков за период времени, мм. При наведении курсора мыши на число - период времени, за который выпало указанное количество осадков.
R24 - Количество осадков - Количество выпавших осадков за 24 часа, мм.
S - Снежный покров - Высота снежного покрова, см. При наведении курсора мыши на число - состояние снежного покрова и степень покрытия местности в баллах.